Погода в Днепрорудном

Украина / Запорожская область     47°23′23″N   35°00′10″E
темп.,
°C
ветер,
м/с
пор.,
м/с
влажн.,
%
обл.,
%
осадки,
мм/ч
давл.,
гПа
погр.,
м
13 мая, чт
чт1300:00+12ю677418 0.0 1012258
03:00+11ююз4469100 0.0 1012245
06:00+11ююз3368100 0.0 1013247
09:00+12вюв12645 0.0 1013293
12:00+15ссв226123 0.0 1013176
15:00+17ссв3262100 0.0 1012154
18:00+19юв3463100 0.0 1011100
21:00+18юв4667100 0.0 1011154
14 мая, пт
пт1400:00+16вюв587550 0.0 1010223
03:00+16юв46835 0.0 1010208
06:00+16ююв348690 0.0 1010176
09:00+17ююз2379100 0.0 1010182
12:00+21ю2262100 0.0 101038
15:00+23ююз3352100 0.0 101053
18:00+23юз5560100 0.0 100942
21:00+19юз59730 0.0 1010136
15 мая, сб
сб1500:00+17зюз5875100 0.0 1011240
03:00+16зюз457824 0.0 1012195
06:00+16зюз337539 0.0 1012174
09:00+17зюз346867 0.0 1013272
12:00+19всв11625 0.0 1014109
15:00+19ссв436882 0.0 1013153
18:00+22ссв235941 0.0 101217
21:00+20ююв336938 0.0 101228
16 мая, вс
вс1600:00+19ю1172100 0.0 101227
03:00+18вюв1169100 0.0 101241
06:00+18всв5773100 0.0 1011195
09:00+19всв587499 0.0 1010261
12:00+22св447151 0.0 100977
15:00+22св4572100 0.6 100644
18:00+23ссв6774100 1.0 100453
21:00+21вюв577825 1.1 100362
17 мая, пн
пн1700:00+20всв118572 0.0 100317
03:00+19всв4481100 0.0 100192
06:00+18ююв5788100 1.3 1002239
09:00+20юз228551 1.8 1002128
12:00+22юз5672100 0.1 1004107
15:00+22з336883 0.3 100478
18:00+21юз687258 1.4 1005177
21:00+19юз577816 2.6 1008146